Location: *
(45.8589°N, 4.7139°E)
Time: 00:34:32
(UTC+00:00)

Cosmos 2082 Rocket - Pass Details

Date: 09 April 2020
Orbit: 831 x 855 km, 71.0° (Epoch: 02 June)

Event Time Altitude Azimuth Distance (km) Brightness Sun altitude
Exits shadow 22:15:24 49° 2° (N) 1,079 2.9 -32.7°
Drops below altitude 10° 22:19:36 10° 22° (NNE) 2,471 5.1 -33.0°
Sets 22:22:05 0° 25° (NNE) 3,413 5.9 -33.2°
